Somerville, NJ

3:07 AM EST on November 21, 2019 (GMT -0500)
Somerset

Weather History for KSMQ - September, 2019

Change the Weather History Date:

Thursday, September 12, 2019

  Actual Average Record
Temperature  
Mean Temperature 72 °F -  
Max Temperature 86 °F 78 °F 98 °F (1983)
Min Temperature 63 °F 52 °F 38 °F (1958)
Cooling Degree Days 8    
Growing Degree Days 22 (Base 50)    
Moisture  
Dew Point 67 °F    
Average Humidity 85    
Maximum Humidity 96    
Minimum Humidity 58    
Precipitation  
Precipitation 0.07 in - - ()
Sea Level Pressure  
Sea Level Pressure 30.07 in    
Wind  
Wind Speed 3 mph (North)    
Max Wind Speed 14 mph    
Max Gust Speed -    
Visibility 6 miles    
Events Fog , Rain    
Averages and records for this station are not official NWS values.
T = Trace of Precipitation, MM = Missing Value Source: NWS Daily Summary

Daily Weather History Graph

Daily Weather History Graph

Search for Another Location

Airport or City:

Astronomy

Sep. 12, 2019 Rise Set
Actual Time 6:36 AM EDT 7:13 PM EDT
Civil Twilight 6:08 AM EDT 7:40 PM EDT
Nautical Twilight 5:36 AM EDT 8:13 PM EDT
Astronomical Twilight 5:02 AM EDT 8:46 PM EDT
Moon 6:56 PM EDT (9/12) 4:52 AM EDT (9/12)
Length of Visible Light 13h 31m
Length of Day
12h 36m
Waxing Gibbous, 98% of the Moon is Illuminated
Sep 12
Waxing Gibbous
Sep 14
Full
Sep 21
Last Quarter
Sep 28
New
Oct 5
First Quarter

Hourly Weather History & Observations

Time (EDT) Temp. Heat Index Dew Point Humidity Pressure Visibility Wind Dir Wind Speed Gust Speed Precip Events Conditions
12:53 AM 73.0 °F - 71.1 °F 93% 30.01 in 6.0 mi North 3.5 mph - N/A   Partly Cloudy
1:30 AM 72.0 °F - 70.0 °F 93% 30.01 in 2.5 mi Calm Calm - N/A   Clear
1:39 AM 72.0 °F - 70.0 °F 93% 30.00 in 5.0 mi Calm Calm - N/A   Clear
1:53 AM 71.1 °F - 69.1 °F 93% 29.99 in 2.0 mi Calm Calm - N/A   Clear
2:00 AM 70.0 °F - 68.0 °F 93% 30.00 in 1.0 mi NW 3.5 mph - N/A   Clear
2:07 AM 71.1 °F - 69.1 °F 93% 29.99 in 3.0 mi Calm Calm - N/A   Clear
2:53 AM 71.1 °F - 69.1 °F 93% 29.98 in 3.0 mi Calm Calm - N/A   Clear
3:06 AM 71.1 °F - 69.1 °F 93% 29.98 in 2.0 mi Calm Calm - N/A   Scattered Clouds
3:15 AM 71.1 °F - 69.1 °F 93% 29.98 in 5.0 mi Calm Calm - N/A   Scattered Clouds
3:53 AM 71.1 °F - 69.1 °F 93% 29.99 in 4.0 mi Calm Calm - 0.00 in   Mostly Cloudy
4:53 AM 71.1 °F - 69.1 °F 93% 29.99 in 3.0 mi South 3.5 mph - N/A   Mostly Cloudy
5:53 AM 71.1 °F - 69.1 °F 93% 29.99 in 4.0 mi Calm Calm - N/A   Clear
6:14 AM 70.0 °F - 68.0 °F 93% 30.00 in 1.8 mi NW 4.6 mph - N/A   Partly Cloudy
6:48 AM 69.8 °F - 68.0 °F 94% 30.01 in 0.2 mi North - - N/A Fog Fog
6:53 AM 69.1 °F - 68.0 °F 96% 30.01 in 0.2 mi North - - N/A Fog Fog
7:10 AM 69.1 °F - 68.0 °F 96% 30.02 in 1.0 mi Calm Calm - N/A   Mist
7:17 AM 69.1 °F - 68.0 °F 96% 30.02 in 1.5 mi Calm Calm - N/A   Partly Cloudy
7:29 AM 70.0 °F - 68.0 °F 93% 30.02 in 3.0 mi Calm Calm - N/A   Partly Cloudy
7:53 AM 71.1 °F - 70.0 °F 96% 30.03 in 4.0 mi North - - N/A   Partly Cloudy
8:53 AM 78.1 °F - 70.0 °F 76% 30.04 in 8.0 mi NNW 3.5 mph - N/A   Clear
9:53 AM 79.0 °F - 70.0 °F 74% 30.04 in 9.0 mi Calm Calm - N/A   Mostly Cloudy
10:44 AM 80.1 °F 82.9 °F 69.1 °F 69% 30.05 in 10.0 mi North 4.6 mph - N/A   Scattered Clouds
10:51 AM 80.6 °F 83.9 °F 69.8 °F 70% 30.05 in 10.0 mi NW 3.5 mph - N/A   Mostly Cloudy
10:53 AM 80.1 °F 82.9 °F 69.1 °F 69% 30.05 in 10.0 mi NNW 5.8 mph - N/A   Mostly Cloudy
11:09 AM 81.0 °F 84.1 °F 69.1 °F 67% 30.05 in 10.0 mi Variable 5.8 mph - N/A   Scattered Clouds
11:53 AM 81.0 °F 83.8 °F 68.0 °F 65% 30.05 in 10.0 mi NNW 6.9 mph - N/A   Overcast
12:53 PM 82.9 °F 85.8 °F 68.0 °F 60% 30.04 in 10.0 mi NNW 5.8 mph - N/A   Overcast
1:53 PM 82.9 °F 85.4 °F 66.9 °F 58% 30.04 in 10.0 mi Variable 4.6 mph - N/A   Overcast
2:53 PM 79.0 °F - 68.0 °F 69% 30.04 in 9.0 mi NE 13.8 mph - N/A   Overcast
3:53 PM 75.9 °F - 70.0 °F 82% 30.05 in 4.0 mi NNE 3.5 mph - 0.00 in Rain Light Rain
4:53 PM 73.9 °F - 68.0 °F 82% 30.08 in 7.0 mi East 6.9 mph - 0.01 in Rain Light Rain
5:18 PM 73.9 °F - 68.0 °F 82% 30.08 in 10.0 mi Variable 5.8 mph - 0.00 in   Overcast
5:53 PM 73.9 °F - 66.0 °F 76% 30.10 in 10.0 mi North - - 0.00 in   Overcast
6:00 PM 73.9 °F - 66.0 °F 76% 30.10 in 10.0 mi NE 9.2 mph - N/A   Overcast
6:53 PM 73.0 °F - 64.9 °F 76% 30.14 in 10.0 mi NE 6.9 mph - N/A   Overcast
7:53 PM 69.1 °F - 63.0 °F 81% 30.17 in 10.0 mi NE 8.1 mph - 0.00 in   Overcast
8:49 PM 66.2 °F - 62.6 °F 88% 30.21 in 5.0 mi North 9.2 mph - 0.00 in   Overcast
8:53 PM 64.9 °F - 62.1 °F 90% 30.22 in 4.0 mi North 8.1 mph - 0.00 in Rain Light Rain
9:05 PM 64.9 °F - 62.1 °F 90% 30.22 in 2.5 mi NNE 8.1 mph - 0.02 in Rain Light Rain
9:12 PM 64.0 °F - 62.1 °F 93% 30.22 in 3.0 mi NNE 9.2 mph - 0.02 in Rain Light Rain
9:53 PM 64.0 °F - 61.0 °F 90% 30.24 in 5.0 mi NE 8.1 mph - 0.03 in   Overcast
10:53 PM 63.0 °F - 60.1 °F 90% 30.26 in 5.0 mi Variable 6.9 mph - 0.02 in   Overcast
11:53 PM 63.0 °F - 60.1 °F 90% 30.27 in 9.0 mi Variable 5.8 mph - 0.01 in   Overcast